Погода в Пожемаяге

Россия / Республика Коми     59°31′19″N   49°30′50″E
темп.,
°C
ветер,
м/с
пор.,
м/с
влажн.,
%
обл.,
%
осадки,
мм/ч
давл.,
гПа
погр.,
м
7 марта, вс
вс700:00−19юз229891 0.0 100924
03:00−21юз2310071 0.0 100921
06:00−22ююз2210094 0.0 100823
09:00−17ю249791 0.1 1007197
12:00−12ю359183 0.0 1006508
15:00−11ююв368992 0.1 1003724
18:00−13юв3896100 0.1 1002280
21:00−14юв41095100 0.1 1001358
8 марта, пн
пн800:00−13вюв4995100 0.3 998376
03:00−14вюв3896100 0.7 997389
06:00−14в4895100 0.6 995390
09:00−13всв3794100 0.9 995413
12:00−11св3692100 0.2 995512
15:00−10ссв4692100 0.5 996607
18:00−13ссв3895100 0.3 999424
21:00−14с3895100 0.4 1001419
9 марта, вт
вт900:00−18с389796 0.1 1003230
03:00−18с489697 0.1 1006342
06:00−23с489899 0.1 1009248
09:00−23с369688 0.1 1011258
12:00−19с369256 0.0 1013419
15:00−18с469076 0.0 1014586
18:00−23с3797100 0.0 1016174
21:00−27с389884 0.0 1019162
10 марта, ср
ср1000:00−30с23990 0.0 101969
03:00−31с23990 0.0 102069
06:00−32с23990 0.0 102143
09:00−26с35960 0.0 1022247
12:00−19ссз259111 0.0 1021417
15:00−17сз368616 0.0 1020593
18:00−21зсз369631 0.0 1020117
21:00−21зсз399854 0.0 1020261
11 марта, чт
чт1100:00−18сз3995100 0.1 1019410
03:00−18сз41096100 0.2 1019350
06:00−17сз41095100 0.1 1019373
09:00−14сз4994100 0.2 1020356
12:00−9сз4986100 0.1 1021545
15:00−7сз488154 0.1 1021755
18:00−12зсз37910 0.0 1022147
21:00−14з310920 0.0 1024223